Weather History for Pittsburgh Allegheny Co., PA

Change the Weather History Date:

Wednesday, August 28, 2013

  Actual Average Record
Temperature  
Mean Temperature 74 °F -  
Max Temperature 79 °F 83 °F 90 °F (1990)
Min Temperature 69 °F 62 °F 50 °F (1969)
Cooling Degree Days 9    
Growing Degree Days 24 (Base 50)    
Moisture  
Dew Point 70 °F    
Average Humidity 96    
Maximum Humidity 100    
Minimum Humidity 82    
Precipitation  
Precipitation 0.97 in - - ()
Sea Level Pressure  
Sea Level Pressure 29.90 in    
Wind  
Wind Speed 5 mph (SSE)    
Max Wind Speed 12 mph    
Max Gust Speed 20 mph    
Visibility 4 miles    
Events Fog , Rain    
Averages and records for this station are not official NWS values.
T = Trace of Precipitation, MM = Missing Value Source: NWS Daily Summary

Daily Weather History Graph

Daily Weather History Graph

Search for Another Location

Airport:

Trip Planner

Search our weather history database for the weather conditions in past years. The results will help you decide how hot, cold, wet, or windy it might be!

Date:

Astronomy

Aug. 28, 2013 Rise Set
Actual Time 6:43 AM EDT 7:57 PM EDT
Civil Twilight 6:15 AM EDT 8:25 PM EDT
Nautical Twilight 5:41 AM EDT 8:59 PM EDT
Astronomical Twilight 5:06 AM EDT 9:34 PM EDT
Moon No Moon Rise 2:34 PM EDT (8/28)
Length of Visible Light 14h 10m
Length of Day
13h 14m
Waning Gibbous, 47% of the Moon is Illuminated
Aug 28
Waning Gibbous
Sep 5
New
Sep 12
First Quarter
Sep 19
Full
Sep 26
Last Quarter

Hourly Weather History & Observations

Time (EDT) Temp. Dew Point Humidity Pressure Visibility Wind Dir Wind Speed Gust Speed Precip Events Conditions
12:53 AM 72.0 °F 70.0 °F 93% 29.95 in 3.0 mi South 5.8 mph - N/A   Mostly Cloudy
1:44 AM 71.6 °F 71.6 °F 100% 29.93 in 2.5 mi South 9.2 mph - 0.01 in Rain Light Rain
1:53 AM 72.0 °F 71.1 °F 97% 29.91 in 2.5 mi South 9.2 mph - 0.01 in Rain Light Rain
2:35 AM 71.6 °F 71.6 °F 100% 29.92 in 3.0 mi South 5.8 mph - 0.01 in   Scattered Clouds
2:45 AM 71.6 °F 71.6 °F 100% 29.92 in 2.5 mi SSW 4.6 mph - 0.01 in Rain Light Rain
2:53 AM 72.0 °F 71.1 °F 97% 29.91 in 2.5 mi SSW 4.6 mph - 0.02 in Rain Light Rain
3:28 AM 71.6 °F 71.6 °F 100% 29.92 in 1.8 mi Calm Calm - 0.02 in Rain Light Rain
3:41 AM 71.6 °F 71.6 °F 100% 29.92 in 0.5 mi East 4.6 mph - 0.09 in Fog , Rain Rain
3:53 AM 71.1 °F 71.1 °F 100% 29.91 in 0.5 mi Variable 3.5 mph - 0.12 in Fog , Rain Light Rain
4:14 AM 71.6 °F 71.6 °F 100% 29.91 in 1.0 mi SE 3.5 mph - 0.02 in Rain Light Rain
4:28 AM 71.6 °F 71.6 °F 100% 29.92 in 0.8 mi Calm Calm - 0.10 in Rain Rain
4:53 AM 72.0 °F 71.1 °F 97% 29.91 in 0.5 mi NNW 3.5 mph - 0.44 in Fog , Rain Heavy Rain
5:17 AM 71.6 °F 69.8 °F 94% 29.92 in 4.0 mi NNE 3.5 mph - 0.24 in Rain Light Rain
5:27 AM 71.6 °F 69.8 °F 94% 29.92 in 4.0 mi Calm Calm - 0.24 in   Overcast
5:43 AM 71.6 °F 71.6 °F 100% 29.92 in 4.0 mi Calm Calm - 0.24 in   Overcast
5:53 AM 71.1 °F 70.0 °F 96% 29.91 in 4.0 mi Calm Calm - 0.24 in Rain Light Rain
6:00 AM 71.6 °F 69.8 °F 94% 29.92 in 5.0 mi Calm Calm - 0.01 in Rain Light Rain
6:15 AM 71.6 °F 71.6 °F 100% 29.92 in 1.8 mi SE 4.6 mph - 0.02 in Rain Light Rain
6:22 AM 71.6 °F 71.6 °F 100% 29.92 in 0.2 mi SE 4.6 mph - 0.03 in Fog , Rain Light Rain
6:30 AM 71.6 °F 71.6 °F 100% 29.92 in 0.2 mi SE 4.6 mph - 0.03 in Fog , Rain Light Rain
6:53 AM 71.1 °F 71.1 °F 100% 29.91 in 0.2 mi SSE 5.8 mph - 0.03 in Fog , Rain Light Rain
7:53 AM 70.0 °F 69.1 °F 97% 29.92 in 1.0 mi SSE 8.1 mph - 0.02 in   Overcast
8:49 AM 69.8 °F 69.8 °F 100% 29.92 in 0.5 mi South 5.8 mph - N/A   Overcast
8:53 AM 69.1 °F 69.1 °F 100% 29.91 in 1.5 mi South 8.1 mph - N/A   Overcast
9:53 AM 70.0 °F 69.1 °F 97% 29.89 in 1.5 mi South 8.1 mph - N/A   Overcast
10:53 AM 72.0 °F 71.1 °F 97% 29.88 in 1.5 mi SSW 6.9 mph - 0.00 in   Overcast
11:00 AM 71.6 °F 71.6 °F 100% 29.89 in 2.0 mi SSW 8.1 mph - N/A   Overcast
11:10 AM 71.6 °F 71.6 °F 100% 29.89 in 2.5 mi SSW 6.9 mph - N/A   Overcast
11:53 AM 75.0 °F 72.0 °F 90% 29.87 in 2.5 mi SSW 9.2 mph - N/A   Overcast
12:53 PM 77.0 °F 73.0 °F 88% 29.85 in 2.5 mi SW 9.2 mph - 0.00 in Rain Light Rain
1:53 PM 77.0 °F 72.0 °F 84% 29.85 in 3.0 mi West 9.2 mph 19.6 mph 0.00 in   Haze
2:10 PM 78.8 °F 73.4 °F 83% 29.86 in 5.0 mi WSW 11.5 mph - 0.00 in Rain Light Rain
2:53 PM 79.0 °F 73.0 °F 82% 29.85 in 7.0 mi WNW 8.1 mph 18.4 mph 0.01 in   Mostly Cloudy
3:23 PM 73.4 °F 69.8 °F 88% 29.86 in 8.0 mi ENE 5.8 mph - N/A   Overcast
3:53 PM 71.1 °F 69.1 °F 93% 29.85 in 10.0 mi SE 8.1 mph - 0.02 in   Overcast
4:48 PM 73.4 °F 69.8 °F 88% 29.86 in 10.0 mi ESE 6.9 mph - 0.01 in   Scattered Clouds
4:53 PM 73.0 °F 70.0 °F 90% 29.85 in 10.0 mi SE 6.9 mph - 0.01 in   Scattered Clouds
5:07 PM 73.4 °F 69.8 °F 88% 29.86 in 10.0 mi ESE 4.6 mph - N/A   Mostly Cloudy
5:14 PM 73.4 °F 69.8 °F 88% 29.85 in 10.0 mi SE 6.9 mph - N/A   Mostly Cloudy
5:53 PM 73.0 °F 69.1 °F 87% 29.85 in 10.0 mi ESE 4.6 mph - N/A   Mostly Cloudy
6:26 PM 71.6 °F 69.8 °F 94% 29.87 in 2.0 mi Calm Calm - 0.04 in Rain Rain
6:38 PM 71.6 °F 69.8 °F 94% 29.86 in 10.0 mi SSE 3.5 mph - 0.05 in Rain Light Rain
6:45 PM 71.6 °F 69.8 °F 94% 29.86 in 10.0 mi SE 3.5 mph - 0.05 in Rain Light Rain
6:53 PM 71.1 °F 70.0 °F 96% 29.85 in 10.0 mi ESE 5.8 mph - 0.05 in   Overcast
7:53 PM 71.1 °F 70.0 °F 96% 29.87 in 10.0 mi Calm Calm - 0.00 in   Overcast
8:09 PM 71.6 °F 69.8 °F 94% 29.89 in 10.0 mi Calm Calm - N/A   Overcast
8:26 PM 71.6 °F 69.8 °F 94% 29.89 in 8.0 mi Calm Calm - N/A   Overcast
8:35 PM 71.6 °F 69.8 °F 94% 29.90 in 5.0 mi Calm Calm - N/A   Overcast
8:44 PM 71.6 °F 69.8 °F 94% 29.91 in 5.0 mi NNE 3.5 mph - N/A   Overcast
8:53 PM 71.1 °F 70.0 °F 96% 29.91 in 8.0 mi Variable 3.5 mph - N/A   Overcast
9:18 PM 71.6 °F 69.8 °F 94% 29.92 in 2.5 mi North 3.5 mph - N/A   Overcast
9:26 PM 71.6 °F 69.8 °F 94% 29.93 in 1.5 mi Calm Calm - N/A   Overcast
9:33 PM 71.6 °F 69.8 °F 94% 29.92 in 2.0 mi Calm Calm - N/A   Overcast
9:53 PM 70.0 °F 69.1 °F 97% 29.92 in 2.0 mi Calm Calm - N/A   Overcast
10:00 PM 69.8 °F 69.8 °F 100% 29.93 in 1.0 mi NNW 4.6 mph - N/A   Mostly Cloudy
10:07 PM 69.8 °F 69.8 °F 100% 29.93 in 0.8 mi North 3.5 mph - N/A   Mist
10:15 PM 69.8 °F 69.8 °F 100% 29.93 in 1.0 mi North 3.5 mph - N/A   Mist
10:25 PM 69.8 °F 69.8 °F 100% 29.94 in 1.0 mi North 4.6 mph - N/A   Mist
10:33 PM 69.8 °F 69.8 °F 100% 29.93 in 2.0 mi North 4.6 mph - N/A   Mostly Cloudy
10:40 PM 69.8 °F 69.8 °F 100% 29.94 in 1.8 mi North 4.6 mph - N/A   Mostly Cloudy
10:53 PM 69.1 °F 69.1 °F 100% 29.93 in 0.8 mi Calm Calm - N/A   Mostly Cloudy
11:03 PM 69.8 °F 69.8 °F 100% 29.94 in 1.8 mi NNW 3.5 mph - N/A   Mostly Cloudy
11:06 PM 69.8 °F 69.8 °F 100% 29.94 in 2.5 mi NNW 4.6 mph - N/A   Mostly Cloudy
11:14 PM 69.8 °F 69.8 °F 100% 29.94 in 3.0 mi NNW 3.5 mph - N/A   Mostly Cloudy
11:23 PM 69.8 °F 69.8 °F 100% 29.94 in 1.8 mi NNW 4.6 mph - N/A   Mostly Cloudy
11:36 PM 69.8 °F 69.8 °F 100% 29.94 in 1.5 mi NNW 5.8 mph - N/A   Overcast
11:53 PM 70.0 °F 69.1 °F 97% 29.93 in 4.0 mi NNW 5.8 mph - N/A   Overcast
11:55 PM 69.8 °F 69.8 °F 100% 29.94 in 0.8 mi NNW 4.6 mph - N/A   Overcast